Location: Erskine
(52.3216°N, 112.8806°W)
Time: 14:42:42
(UTC+00:00)

Tiangong - Visible Passes

Search period start: 09 June 2023 00:00
Search period end: 19 June 2023 00:00
Orbit: 386 x 390 km, 41.5° (Epoch: 09 June)

Date Brightness Start Highest point End Pass type
(mag) Time Alt. Az. Time Alt. Az. Time Alt. Az.
10 Jun 0.0 09:29:16 12° S 09:29:16 12° S 09:30:19 10° SSE visible
11 Jun 0.1 10:06:04 10° SSW 10:06:31 10° SSW 10:07:00 10° S visible
18 Jun 0.1 04:51:32 10° S 04:52:28 11° S 04:53:25 10° SSE visible
